FW5433 Weather Reports


Display with metric or nautical units.
time (UTC)temp
F
wind
direction
speed
MPH
gust
MPH
rain 1hr
in
rain 24hr
in
rain mn
in
humidity
%
barometer
mb
20260510230515 68 0.0 2.0 0.00 0.03 0.03 39 1018.3
20260510225535 68 0.0 0.0 0.00 0.03 0.03 42 1018.4
20260510224515 68 0.0 1.0 0.00 0.03 0.03 44 1018.4
20260510223515 68 0.0 1.0 0.00 0.03 0.03 43 1018.3
20260510222515 68 0.0 1.0 0.00 0.03 0.03 43 1018.4
20260510221515 68 0.0 1.0 0.00 0.03 0.03 41 1018.2
20260510220515 68 0.0 1.0 0.00 0.03 0.03 39 1018.3
20260510215515 68 0.0 0.0 0.00 0.03 0.03 41 1018.4
20260510214515 68 0.0 1.0 0.00 0.03 0.03 39 1018.4
20260510213535 68 0.0 0.0 0.00 0.03 0.03 37 1018.6
20260510212535 68 0.0 2.0 0.00 0.03 0.03 38 1018.7
20260510211515 69 0 1.0 2.0 0.00 0.03 0.03 39 1018.8
20260510210515 68 0.0 2.0 0.00 0.03 0.03 40 1018.6
20260510205515 69 0.0 2.0 0.00 0.03 0.03 42 1018.6
20260510204515 68 0.0 2.0 0.00 0.03 0.03 42 1018.4
20260510203515 68 0.0 1.0 0.00 0.03 0.03 40 1018.4
20260510202535 68 0 1.0 2.0 0.00 0.03 0.03 38 1018.4
20260510201515 68 23 1.0 3.0 0.00 0.03 0.03 39 1018.5
20260510200515 68 23 1.0 5.0 0.00 0.03 0.03 37 1018.6
20260510195515 69 23 2.0 5.0 0.00 0.03 0.03 36 1018.5
20260510194515 69 0 1.0 5.0 0.00 0.03 0.03 37 1018.7
20260510193535 69 0.0 2.0 0.00 0.03 0.03 41 1018.3
20260510192537 69 338 1.0 2.0 0.00 0.03 0.03 38 1018.5
20260510191537 68 315 1.0 4.0 0.00 0.03 0.03 39 1018.6
20260510190517 68 23 1.0 2.0 0.00 0.03 0.03 40 1018.6
20260510185516 67 338 1.0 5.0 0.00 0.03 0.03 39 1018.4
20260510184536 67 0.0 0.0 0.00 0.03 0.03 41 1018.3
20260510183536 68 0.0 2.0 0.00 0.03 0.03 45 1018.3
20260510182517 68 23 1.0 5.0 0.00 0.03 0.03 41 1018.2
20260510181516 67 0 1.0 4.0 0.00 0.03 0.03 38 1018.0
20260510180536 67 23 1.0 5.0 0.00 0.03 0.03 41 1018.2
20260510175537 67 0 1.0 3.0 0.00 0.03 0.03 38 1018.2
20260510174516 67 0.0 2.0 0.00 0.03 0.03 41 1018.3
20260510173516 68 0 2.0 5.0 0.00 0.03 0.03 34 1018.5
20260510172516 68 0 1.0 4.0 0.00 0.03 0.03 34 1018.4
20260510171516 68 0 1.0 3.0 0.00 0.03 0.03 36 1018.3
20260510170516 68 0 2.0 6.0 0.00 0.03 0.03 36 1018.4
20260510165516 67 90 1.0 3.0 0.00 0.03 0.03 41 1018.3
20260510164516 66 0 2.0 5.0 0.00 0.03 0.03 37 1018.5
20260510163516 66 0 1.0 4.0 0.00 0.03 0.03 38 1018.7
20260510162516 66 0 2.0 6.0 0.00 0.03 0.03 37 1018.8
20260510161516 67 338 1.0 6.0 0.00 0.03 0.03 37 1018.8
20260510160516 67 23 1.0 4.0 0.00 0.03 0.03 39 1018.7
20260510155536 67 23 1.0 4.0 0.00 0.03 0.03 39 1018.6
20260510154516 67 338 1.0 2.0 0.00 0.03 0.03 40 1018.6
20260510153516 66 0 2.0 5.0 0.00 0.03 0.03 39 1018.4
20260510152516 66 0 1.0 4.0 0.00 0.03 0.03 40 1018.2
20260510151516 66 0 1.0 4.0 0.00 0.03 0.03 44 1018.1
20260510150516 65 338 2.0 6.0 0.00 0.03 0.03 45 1017.9
20260510145517 64 0.0 2.0 0.00 0.03 0.03 51 1017.9
20260510144516 63 23 2.0 7.0 0.00 0.03 0.03 52 1017.7
20260510143516 62 23 2.0 5.0 0.00 0.03 0.03 56 1017.4
20260510142536 62 0 1.0 4.0 0.00 0.03 0.03 59 1017.1
20260510141536 62 0 1.0 3.0 0.00 0.03 0.03 59 1017.2
20260510140536 61 0.0 4.0 0.00 0.03 0.03 64 1017.1
20260510135516 61 0 1.0 4.0 0.00 0.03 0.03 64 1017.0
20260510134516 60 338 1.0 3.0 0.00 0.03 0.03 65 1017.0
20260510133536 60 0 1.0 3.0 0.00 0.03 0.03 67 1017.1
20260510132516 59 0 1.0 5.0 0.00 0.03 0.03 68 1017.5
20260510131516 59 0.0 2.0 0.00 0.03 0.03 71 1017.2
20260510130516 58 0.0 2.0 0.00 0.03 0.03 74 1016.9
20260510125516 58 0 1.0 5.0 0.00 0.03 0.03 74 1016.8
20260510124516 58 0 1.0 4.0 0.00 0.03 0.03 77 1016.6
20260510123516 58 0.0 2.0 0.00 0.03 0.03 79 1016.4
20260510122536 58 0.0 1.0 0.00 0.03 0.03 80 1016.5
20260510121516 58 23 1.0 4.0 0.00 0.03 0.03 81 1016.5
20260510120516 58 0.0 2.0 0.00 0.03 0.03 85 1016.4
20260510115516 58 0.0 1.0 0.00 0.03 0.03 86 1016.2
20260510114536 57 0.0 3.0 0.00 0.03 0.03 87 1015.9
20260510113516 57 0 1.0 4.0 0.00 0.03 0.03 90 1015.5
20260510112516 57 0.0 1.0 0.00 0.03 0.03 92 1015.2
20260510111536 58 0.0 0.0 0.00 0.03 0.03 94 1014.8
20260510110516 58 0.0 0.0 0.00 0.03 0.03 94 1014.7
20260510105516 58 0.0 0.0 0.00 0.03 0.03 95 1014.5
20260510104515 58 0.0 0.0 0.00 0.03 0.03 95 1014.3
20260510103515 58 0.0 4.0 0.00 0.03 0.03 95 1014.2
20260510102516 58 0.0 1.0 0.00 0.03 0.03 95 1014.1
20260510101516 58 0.0 1.0 0.00 0.03 0.03 95 1014.0
20260510100535 59 23 1.0 2.0 0.00 0.03 0.03 95 1013.9
20260510095535 59 0.0 1.0 0.00 0.03 0.03 95 1013.8
20260510094536 59 0.0 0.0 0.00 0.03 0.03 95 1013.8
20260510093515 59 0.0 0.0 0.00 0.03 0.03 95 1013.7
20260510092515 60 0.0 0.0 0.00 0.03 0.03 95 1013.8
20260510091515 60 0.0 1.0 0.00 0.03 0.03 95 1013.6
20260510090515 60 0.0 1.0 0.00 0.03 0.03 95 1013.4
20260510085515 60 0.0 0.0 0.00 0.03 0.03 95 1013.3
20260510084516 60 0.0 0.0 0.00 0.03 0.03 95 1013.3
20260510083515 60 0.0 0.0 0.00 0.03 0.03 95 1013.0
20260510082515 60 0.0 0.0 0.00 0.03 0.03 94 1012.9
20260510081515 60 0.0 0.0 0.00 0.03 0.03 94 1012.7
20260510080515 60 0.0 0.0 0.00 0.03 0.03 94 1012.5
20260510075515 61 0.0 0.0 0.00 0.03 0.03 94 1012.1
20260510074515 61 0.0 0.0 0.00 0.03 0.03 94 1012.0
20260510073515 61 0.0 0.0 0.00 0.03 0.03 93 1012.0
20260510072515 61 0.0 0.0 0.00 0.03 0.03 94 1012.1
20260510071515 61 0.0 0.0 0.01 0.03 0.03 94 1011.8
20260510070515 61 0.0 0.0 0.01 0.03 0.03 93 1011.6
20260510065515 61 0.0 0.0 0.02 0.03 0.03 93 1011.7
20260510064515 62 0.0 1.0 0.02 0.03 0.03 93 1012.0
20260510063535 62 0.0 0.0 0.03 0.03 0.03 93 1012.0
20260510062515 62 0.0 2.0 0.03 0.03 0.03 93 1011.5
20260510061515 62 0.0 0.0 0.02 0.02 0.02 92 1011.9
20260510060515 62 0.0 1.0 0.02 0.02 0.02 92 1010.7
20260510055515 62 113 1.0 2.0 0.01 0.01 0.01 91 1011.4
20260510054535 63 0.0 2.0 0.01 0.01 0.01 89 1011.3
20260510053515 63 0.0 1.0 0.00 0.00 0.00 88 1011.6
20260510052535 63 0.0 0.0 0.00 0.00 0.00 87 1011.6
20260510051515 63 0.0 2.0 0.00 0.00 0.00 85 1011.7
20260510050515 63 23 1.0 2.0 0.00 0.00 0.00 85 1011.9
20260510045517 64 23 1.0 4.0 0.00 0.01 0.00 84 1011.4
20260510044516 64 0 1.0 6.0 0.00 0.01 0.00 84 1011.5
20260510043516 64 338 2.0 6.0 0.00 0.01 0.00 83 1011.4
20260510042516 65 0 2.0 7.0 0.00 0.01 0.00 82 1010.8
20260510041516 65 338 3.0 7.0 0.00 0.02 0.00 79 1011.1
20260510040536 66 338 4.0 13.0 0.00 0.12 0.00 76 1011.2
20260510035516 68 338 4.0 13.0 0.00 0.22 0.00 73 1011.2
20260510034516 69 315 4.0 12.0 0.00 0.29 0.00 66 1011.1
20260510033516 69 0.0 0.0 0.00 0.36 0.00 64 1009.6
20260510032516 68 0.0 0.0 0.00 0.42 0.00 65 1009.4
20260510031517 68 0.0 0.0 0.00 0.47 0.00 66 1009.3
20260510030516 68 0.0 0.0 0.00 0.54 0.00 66 1009.1
20260510025516 68 0.0 0.0 0.00 0.63 0.00 65 1009.0
20260510024516 69 0.0 0.0 0.00 0.69 0.00 65 1009.1
20260510023516 69 0.0 0.0 0.00 0.72 0.00 64 1008.9
20260510022516 69 0.0 0.0 0.00 0.74 0.00 63 1008.7
20260510021536 70 0.0 0.0 0.00 0.75 0.00 61 1008.6
20260510020516 70 0.0 0.0 0.00 0.75 0.00 58 1008.4
20260510015516 71 0.0 0.0 0.00 0.76 0.00 56 1008.2
20260510014536 72 0.0 0.0 0.00 0.76 0.00 56 1008.1
20260510013516 72 0.0 0.0 0.00 0.76 0.00 55 1008.1
20260510012516 73 0.0 0.0 0.00 0.76 0.00 55 1008.0
20260510011516 74 0.0 0.0 0.00 0.77 0.00 53 1007.9
20260510010556 74 0.0 0.0 0.00 0.77 0.00 52 1007.8
20260510005516 75 0.0 0.0 0.00 0.77 0.00 48 1007.7
20260510004536 76 0.0 0.0 0.00 0.77 0.00 47 1007.7
20260510003516 78 0.0 0.0 0.00 0.77 0.00 45 1007.7
20260510002515 80 0.0 0.0 0.00 0.77 0.00 44 1007.5
20260510001515 81 0.0 0.0 0.00 0.77 0.00 39 1007.5
20260510000515 81 0.0 0.0 0.00 0.77 0.00 39 1007.4
20260509235515 81 0.0 0.0 0.00 0.77 0.00 40 1007.4
20260509234515 81 0.0 0.0 0.00 0.77 0.00 38 1007.4
20260509233516 81 0.0 1.0 0.00 0.77 0.00 38 1007.4
20260509232515 81 0.0 1.0 0.00 0.77 0.00 38 1007.3
20260509231516 81 0.0 2.0 0.00 0.77 0.00 39 1007.3